Tracking 23731 objects as of 26-Sep-2021
HD Live streaming from Space Station
objects crossing your sky now

STARLINK-1700

Track STARLINK-1700 now!
10-day predictions
STARLINK-1700 is classified as:


NORAD ID: 46549
Int'l Code: 2020-070T
Perigee: 553.7 km
Apogee: 555.0 km
Inclination: 53.1 °
Period: 95.6 minutes
Semi major axis: 6925 km
RCS: Unknown
Launch date: October 6, 2020
Source: United States (US)
Launch site: AIR FORCE EASTERN TEST RANGE (AFETR)
aabbcc
Your satellite tracking list
Your tracking list is empty




NASA's NSSDC Master Catalog

Two Line Element Set (TLE):
1 46549U 20070T   21269.29414809  .00002277  00000-0  17171-3 0  9992
2 46549  53.0526 273.3102 0000890  63.3057 296.8023 15.06400412 54518
Source of the keplerian elements: AFSPC